SWARM C

Last updated on Thu Nov 21 2024 00:03:26 GMT+0000 (Coordinated Universal Time)

1 39453U 13067C 24325.60158705 .00014525 00000+0 40293-3 0 9996 2 39453 87.3393 265.1838 0003534 91.3949 268.7709 15.36798572617705
UTC large
Height (km)
Speed (km/s)
/
Latitude / Longitude
Inclination (degrees)
Orbital Period (minutes)
Azimuth
Elevation
Range (km)
Doppler Factor

Next 0 passes for location: London (51.5072 / 0.1276)

Sorry there are no passes over London.